ヴィルト第3彗星

86P/Wild 3 (2001)

English version
Home page
Updated on June 3, 2001

---------------------------------------------------------------------

・ プロフィール

・ 軌道要素

Epoch 2001 June 20.0 TT = JDT 2452080.5  
T 2001 June 18.60218 TT                                 Muraoka 
q   2.3102895            (2000.0)            P               Q
n   0.14220076     Peri.  179.16205     -0.31224683     +0.91540372
a   3.6352540      Node    72.61289     -0.87315017     -0.17117120
e   0.3644765      Incl.   15.43868     -0.37431364     -0.36433014
P   6.93
From 70 observations 1980-1997, mean residual 0".91.  Nongravitational
   parameters A1 = +0.30 +/- 0.15, A2 = +0.1462 +/- 0.0029.

・ 星図

・ 光度変化

        m1 = 11.5 + 5 logΔ + 15.0 log r

---------------------------------------------------------------------

軌道要素は村岡健治氏の計算によるものです。
星図は StellaNavigator Ver.2.0 for Windows (アストロアーツ 編著 / アスキー出版局刊) で作成したものです。
光度グラフはComet for Windowsで作成したものです。

---------------------------------------------------------------------

Copyright(C) Seiichi Yoshida (comet@aerith.net). All rights reserved.